sat.trackr.live / text

‹ back to catalog

ONEWEB-0126

NORAD 47272 · 2020-100Q

PAYLOAD ACTIVE UNKNOWN

§ Identity

Operator
Country
UK
Launch date
2020-12-18
Launch site
VOSTO
Launch vehicle
Mass (kg)
RCS (m²)

Purposes: comms

External: N2YO · Heavens-Above · Gunter

§ Orbital elements

Epoch: 2026-05-25T02:17:07.689696Z

Period
109.72 min
Inclination
87.8954°
Eccentricity
0.0001500
Mean motion
13.12444263 rev/d
Perigee alt
1,212.6 km
Apogee alt
1,214.9 km
Semi-major
7,591.9 km
B*
7.2875e-4
RAAN
355.2637°
Arg perigee
106.9654°
Mean anomaly
253.1639°
Rev number
26,167

§ Raw data

ONEWEB-01261 47272U 20100Q   26145.09522789  .00000275  00000+0  72875-3 0  99902 47272  87.8954 355.2637 0001500 106.9654 253.1639 13.12444263261674

JSON: /api/v1/satellites/47272 · /tle

For live sub-satellite position, see the globe view (requires WebGL).

§ Visibility from observer

Set your observer location to see the next 7 days of passes ≥ 10°. The values pass through the URL so the page stays shareable.

No JS? Fill the form by hand. The geolocation button needs JavaScript.